User: anonymous   Login
Location: Livonia
(42.3680°N, 83.3530°W)
Time: 02:36:59
(UTC-05:00)
Language:

MOZ.5/SAFIR/RUBIN 5/SL-8 - Orbit

View from above orbital plane
View from above orbital plane
View from above satellite
View from above satellite

Ground track
Ground track

The orbit data is extracted from the following two-line orbital elements,

1 28898U 05043G   17058.54650390  .00000064  00000-0  22386-4 0  9995
2 28898  97.9084 213.1693 0020143 168.9165 191.2484 14.60165542603838
Epoch (UTC): 27 February 2017 13:06:57
Eccentricity: 0.0020143
inclination: 97.9084°
perigee height: 678 km
apogee height: 707 km
right ascension of ascending node: 213.1693°
argument of perigee: 168.9165°
revolutions per day: 14.60165542
mean anomaly at epoch: 191.2484°
orbit number at epoch: 60383

The dashed part of the orbit path shows where the satellite is in the earth's shadow,  

DLR